#Datum;Uhrzeit;WR;Pac;DaySum;Status;WR;Pac;DaySum;Status;Pdc1;Udc;Temp;WR;Pac;DaySum;Status;Pdc1;Udc;Temp;WR;Pac;DaySum;Status;Pdc1;Udc;Temp;WR;Pac;DaySum;Status;Pdc1;Pdc2;Udc1;Udc2;Temp;WR;Pac;DaySum;Status;Pdc1;Pdc2;Udc1;Udc2;Temp;WR;Pac;DaySum;Status;Pdc1;Udc;Temp;WR;Pac;DaySum;Status;Pdc1;Udc;Temp;WR;Pac;DaySum;Status;Pdc1;Udc;Temp
14.03.19;23:55:00;1;222;7419;0;2;0;7723;0;0;0;0;3;0;4853;0;0;0;0;4;0;6806;0;0;0;0;5;0;16348;0;0;0;0;0;0;6;0;12313;0;0;0;0;0;0;7;0;8587;0;0;0;0;8;0;8607;0;0;0;0;9;0;4639;0;0;0;0
14.03.19;23:50:00;1;221;7400;0;2;0;7723;0;0;0;0;3;0;4853;0;0;0;0;4;0;6806;0;0;0;0;5;0;16348;0;0;0;0;0;0;6;0;12313;0;0;0;0;0;0;7;0;8587;0;0;0;0;8;0;8607;0;0;0;0;9;0;4639;0;0;0;0
14.03.19;23:45:00;1;220;7382;0;2;0;7723;0;0;0;0;3;0;4853;0;0;0;0;4;0;6806;0;0;0;0;5;0;16348;0;0;0;0;0;0;6;0;12313;0;0;0;0;0;0;7;0;8587;0;0;0;0;8;0;8607;0;0;0;0;9;0;4639;0;0;0;0
14.03.19;23:40:00;1;221;7363;0;2;0;7723;0;0;0;0;3;0;4853;0;0;0;0;4;0;6806;0;0;0;0;5;0;16348;0;0;0;0;0;0;6;0;12313;0;0;0;0;0;0;7;0;8587;0;0;0;0;8;0;8607;0;0;0;0;9;0;4639;0;0;0;0
14.03.19;23:35:00;1;228;7345;0;2;0;7723;0;0;0;0;3;0;4853;0;0;0;0;4;0;6806;0;0;0;0;5;0;16348;0;0;0;0;0;0;6;0;12313;0;0;0;0;0;0;7;0;8587;0;0;0;0;8;0;8607;0;0;0;0;9;0;4639;0;0;0;0
14.03.19;23:30:00;1;265;7325;0;2;0;7723;0;0;0;0;3;0;4853;0;0;0;0;4;0;6806;0;0;0;0;5;0;16348;0;0;0;0;0;0;6;0;12313;0;0;0;0;0;0;7;0;8587;0;0;0;0;8;0;8607;0;0;0;0;9;0;4639;0;0;0;0
14.03.19;23:25:00;1;266;7303;0;2;0;7723;0;0;0;0;3;0;4853;0;0;0;0;4;0;6806;0;0;0;0;5;0;16348;0;0;0;0;0;0;6;0;12313;0;0;0;0;0;0;7;0;8587;0;0;0;0;8;0;8607;0;0;0;0;9;0;4639;0;0;0;0
14.03.19;23:20:00;1;230;7281;0;2;0;7723;0;0;0;0;3;0;4853;0;0;0;0;4;0;6806;0;0;0;0;5;0;16348;0;0;0;0;0;0;6;0;12313;0;0;0;0;0;0;7;0;8587;0;0;0;0;8;0;8607;0;0;0;0;9;0;4639;0;0;0;0
14.03.19;23:15:00;1;224;7261;0;2;0;7723;0;0;0;0;3;0;4853;0;0;0;0;4;0;6806;0;0;0;0;5;0;16348;0;0;0;0;0;0;6;0;12313;0;0;0;0;0;0;7;0;8587;0;0;0;0;8;0;8607;0;0;0;0;9;0;4639;0;0;0;0
14.03.19;23:10:00;1;225;7242;0;2;0;7723;0;0;0;0;3;0;4853;0;0;0;0;4;0;6806;0;0;0;0;5;0;16348;0;0;0;0;0;0;6;0;12313;0;0;0;0;0;0;7;0;8587;0;0;0;0;8;0;8607;0;0;0;0;9;0;4639;0;0;0;0
14.03.19;23:05:00;1;224;7223;0;2;0;7723;0;0;0;0;3;0;4853;0;0;0;0;4;0;6806;0;0;0;0;5;0;16348;0;0;0;0;0;0;6;0;12313;0;0;0;0;0;0;7;0;8587;0;0;0;0;8;0;8607;0;0;0;0;9;0;4639;0;0;0;0
14.03.19;23:00:00;1;222;7205;0;2;0;7723;0;0;0;0;3;0;4853;0;0;0;0;4;0;6806;0;0;0;0;5;0;16348;0;0;0;0;0;0;6;0;12313;0;0;0;0;0;0;7;0;8587;0;0;0;0;8;0;8607;0;0;0;0;9;0;4639;0;0;0;0
14.03.19;22:55:00;1;220;7186;0;2;0;7723;0;0;0;0;3;0;4853;0;0;0;0;4;0;6806;0;0;0;0;5;0;16348;2;0;0;0;0;0;6;0;12313;2;0;0;0;0;0;7;0;8587;0;0;0;0;8;0;8607;0;0;0;0;9;0;4639;0;0;0;0
14.03.19;22:50:00;1;258;7168;0;2;0;7723;0;0;0;0;3;0;4853;0;0;0;0;4;0;6806;0;0;0;0;5;0;16348;2;0;0;0;0;0;6;0;12313;2;0;0;0;0;0;7;0;8587;0;0;0;0;8;0;8607;0;0;0;0;9;0;4639;0;0;0;0
14.03.19;22:45:00;1;307;7146;0;2;0;7723;0;0;0;0;3;0;4853;0;0;0;0;4;0;6806;0;0;0;0;5;0;16348;2;0;0;0;0;0;6;0;12313;2;0;0;0;0;0;7;0;8587;0;0;0;0;8;0;8607;0;0;0;0;9;0;4639;0;0;0;0
14.03.19;22:40:00;1;447;7119;0;2;0;7723;0;0;0;0;3;0;4853;0;0;0;0;4;0;6806;0;0;0;0;5;0;16348;2;0;0;0;0;0;6;0;12313;2;0;0;0;0;0;7;0;8587;0;0;0;0;8;0;8607;0;0;0;0;9;0;4639;0;0;0;0
14.03.19;22:35:00;1;330;7088;0;2;0;7723;0;0;0;0;3;0;4853;0;0;0;0;4;0;6806;0;0;0;0;5;0;16348;2;0;0;0;0;0;6;0;12313;2;0;0;0;0;0;7;0;8587;0;0;0;0;8;0;8607;0;0;0;0;9;0;4639;0;0;0;0
14.03.19;22:30:00;1;322;7059;0;2;0;7723;0;0;0;0;3;0;4853;0;0;0;0;4;0;6806;0;0;0;0;5;0;16348;2;0;0;0;0;0;6;0;12313;2;0;0;0;0;0;7;0;8587;0;0;0;0;8;0;8607;0;0;0;0;9;0;4639;0;0;0;0
14.03.19;22:25:00;1;569;7031;0;2;0;7723;0;0;0;0;3;0;4853;0;0;0;0;4;0;6806;0;0;0;0;5;0;16348;2;0;0;0;0;0;6;0;12313;2;0;0;0;0;0;7;0;8587;0;0;0;0;8;0;8607;0;0;0;0;9;0;4639;0;0;0;0
14.03.19;22:20:00;1;363;6978;0;2;0;7723;0;0;0;0;3;0;4853;0;0;0;0;4;0;6806;0;0;0;0;5;0;16348;2;0;0;0;0;0;6;0;12313;2;0;0;0;0;0;7;0;8587;0;0;0;0;8;0;8607;0;0;0;0;9;0;4639;0;0;0;0
14.03.19;22:15:00;1;276;6946;0;2;0;7723;0;0;0;0;3;0;4853;0;0;0;0;4;0;6806;0;0;0;0;5;0;16348;2;0;0;0;0;0;6;0;12313;2;0;0;0;0;0;7;0;8587;0;0;0;0;8;0;8607;0;0;0;0;9;0;4639;0;0;0;0
14.03.19;22:10:00;1;276;6923;0;2;0;7723;0;0;0;0;3;0;4853;0;0;0;0;4;0;6806;0;0;0;0;5;0;16348;2;0;0;0;0;0;6;0;12313;2;0;0;0;0;0;7;0;8587;0;0;0;0;8;0;8607;0;0;0;0;9;0;4639;0;0;0;0
14.03.19;22:05:00;1;278;6900;0;2;0;7723;0;0;0;0;3;0;4853;0;0;0;0;4;0;6806;0;0;0;0;5;0;16348;2;0;0;0;0;0;6;0;12313;2;0;0;0;0;0;7;0;8587;0;0;0;0;8;0;8607;0;0;0;0;9;0;4639;0;0;0;0
14.03.19;22:00:00;1;279;6877;0;2;0;7723;0;0;0;0;3;0;4853;0;0;0;0;4;0;6806;0;0;0;0;5;0;16348;2;0;0;0;0;0;6;0;12313;2;0;0;0;0;0;7;0;8587;0;0;0;0;8;0;8607;0;0;0;0;9;0;4639;0;0;0;0
14.03.19;21:55:00;1;292;6854;0;2;0;7723;0;0;0;0;3;0;4853;0;0;0;0;4;0;6806;0;0;0;0;5;0;16348;2;0;0;0;0;0;6;0;12313;2;0;0;0;0;0;7;0;8587;0;0;0;0;8;0;8607;0;0;0;0;9;0;4639;0;0;0;0
14.03.19;21:50:00;1;260;6830;0;2;0;7723;0;0;0;0;3;0;4853;0;0;0;0;4;0;6806;0;0;0;0;5;0;16348;2;0;0;0;0;0;6;0;12313;2;0;0;0;0;0;7;0;8587;0;0;0;0;8;0;8607;0;0;0;0;9;0;4639;0;0;0;0
14.03.19;21:45:00;1;263;6808;0;2;0;7723;0;0;0;0;3;0;4853;0;0;0;0;4;0;6806;0;0;0;0;5;0;16348;2;0;0;0;0;0;6;0;12313;2;0;0;0;0;0;7;0;8587;0;0;0;0;8;0;8607;0;0;0;0;9;0;4639;0;0;0;0
14.03.19;21:40:00;1;230;6786;0;2;0;7723;0;0;0;0;3;0;4853;0;0;0;0;4;0;6806;0;0;0;0;5;0;16348;2;0;0;0;0;0;6;0;12313;2;0;0;0;0;0;7;0;8587;0;0;0;0;8;0;8607;0;0;0;0;9;0;4639;0;0;0;0
14.03.19;21:35:00;1;218;6767;0;2;0;7723;0;0;0;0;3;0;4853;0;0;0;0;4;0;6806;0;0;0;0;5;0;16348;2;0;0;0;0;0;6;0;12313;2;0;0;0;0;0;7;0;8587;0;0;0;0;8;0;8607;0;0;0;0;9;0;4639;0;0;0;0
14.03.19;21:30:00;1;217;6749;0;2;0;7723;0;0;0;0;3;0;4853;0;0;0;0;4;0;6806;0;0;0;0;5;0;16348;2;0;0;0;0;0;6;0;12313;2;0;0;0;0;0;7;0;8587;0;0;0;0;8;0;8607;0;0;0;0;9;0;4639;0;0;0;0
14.03.19;21:25:00;1;218;6730;0;2;0;7723;0;0;0;0;3;0;4853;0;0;0;0;4;0;6806;0;0;0;0;5;0;16348;2;0;0;0;0;0;6;0;12313;2;0;0;0;0;0;7;0;8587;0;0;0;0;8;0;8607;0;0;0;0;9;0;4639;0;0;0;0
14.03.19;21:20:00;1;224;6712;0;2;0;7723;0;0;0;0;3;0;4853;0;0;0;0;4;0;6806;0;0;0;0;5;0;16348;2;0;0;0;0;0;6;0;12313;2;0;0;0;0;0;7;0;8587;0;0;0;0;8;0;8607;0;0;0;0;9;0;4639;0;0;0;0
14.03.19;21:15:00;1;270;6693;0;2;0;7723;0;0;0;0;3;0;4853;0;0;0;0;4;0;6806;0;0;0;0;5;0;16348;2;0;0;0;0;0;6;0;12313;2;0;0;0;0;0;7;0;8587;0;0;0;0;8;0;8607;0;0;0;0;9;0;4639;0;0;0;0
14.03.19;21:10:00;1;280;6671;0;2;0;7723;0;0;0;0;3;0;4853;0;0;0;0;4;0;6806;0;0;0;0;5;0;16348;2;0;0;0;0;0;6;0;12313;2;0;0;0;0;0;7;0;8587;0;0;0;0;8;0;8607;0;0;0;0;9;0;4639;0;0;0;0
14.03.19;21:05:00;1;292;6647;0;2;0;7723;0;0;0;0;3;0;4853;0;0;0;0;4;0;6806;0;0;0;0;5;0;16348;2;0;0;0;0;0;6;0;12313;2;0;0;0;0;0;7;0;8587;0;0;0;0;8;0;8607;0;0;0;0;9;0;4639;0;0;0;0
14.03.19;21:00:00;1;332;6622;0;2;0;7723;0;0;0;0;3;0;4853;0;0;0;0;4;0;6806;0;0;0;0;5;0;16348;2;0;0;0;0;0;6;0;12313;2;0;0;0;0;0;7;0;8587;0;0;0;0;8;0;8607;0;0;0;0;9;0;4639;0;0;0;0
14.03.19;20:55:00;1;400;6594;0;2;0;7723;0;0;0;0;3;0;4853;0;0;0;0;4;0;6806;0;0;0;0;5;0;16348;2;0;0;0;0;0;6;0;12313;2;0;0;0;0;0;7;0;8587;0;0;0;0;8;0;8607;0;0;0;0;9;0;4639;0;0;0;0
14.03.19;20:50:00;1;476;6559;0;2;0;7723;0;0;0;0;3;0;4853;0;0;0;0;4;0;6806;0;0;0;0;5;0;16348;2;0;0;0;0;0;6;0;12313;2;0;0;0;0;0;7;0;8587;0;0;0;0;8;0;8607;0;0;0;0;9;0;4639;0;0;0;0
14.03.19;20:45:00;1;525;6517;0;2;0;7723;0;0;0;0;3;0;4853;0;0;0;0;4;0;6806;0;0;0;0;5;0;16348;2;0;0;0;0;0;6;0;12313;2;0;0;0;0;0;7;0;8587;0;0;0;0;8;0;8607;0;0;0;0;9;0;4639;0;0;0;0
14.03.19;20:40:00;1;525;6473;0;2;0;7723;0;0;0;0;3;0;4853;0;0;0;0;4;0;6806;0;0;0;0;5;0;16348;2;0;0;0;0;0;6;0;12313;2;0;0;0;0;0;7;0;8587;0;0;0;0;8;0;8607;0;0;0;0;9;0;4639;0;0;0;0
14.03.19;20:35:00;1;508;6429;0;2;0;7723;0;0;0;0;3;0;4853;0;0;0;0;4;0;6806;0;0;0;0;5;0;16348;2;0;0;0;0;0;6;0;12313;2;0;0;0;0;0;7;0;8587;0;0;0;0;8;0;8607;0;0;0;0;9;0;4639;0;0;0;0
14.03.19;20:30:00;1;548;6388;0;2;0;7723;0;0;0;0;3;0;4853;0;0;0;0;4;0;6806;0;0;0;0;5;0;16348;2;0;0;0;0;0;6;0;12313;2;0;0;0;0;0;7;0;8587;0;0;0;0;8;0;8607;0;0;0;0;9;0;4639;0;0;0;0
14.03.19;20:25:00;1;570;6343;0;2;0;7723;0;0;0;0;3;0;4853;0;0;0;0;4;0;6806;0;0;0;0;5;0;16348;2;0;0;0;0;0;6;0;12313;2;0;0;0;0;0;7;0;8587;0;0;0;0;8;0;8607;0;0;0;0;9;0;4639;0;0;0;0
14.03.19;20:20:00;1;541;6298;0;2;0;7723;0;0;0;0;3;0;4853;0;0;0;0;4;0;6806;0;0;0;0;5;0;16348;2;0;0;0;0;0;6;0;12313;2;0;0;0;0;0;7;0;8587;0;0;0;0;8;0;8607;0;0;0;0;9;0;4639;0;0;0;0
14.03.19;20:15:00;1;589;6251;0;2;0;7723;0;0;0;0;3;0;4853;0;0;0;0;4;0;6806;0;0;0;0;5;0;16348;2;0;0;0;0;0;6;0;12313;2;0;0;0;0;0;7;0;8587;0;0;0;0;8;0;8607;0;0;0;0;9;0;4639;0;0;0;0
14.03.19;20:10:00;1;618;6201;0;2;0;7723;0;0;0;0;3;0;4853;0;0;0;0;4;0;6806;0;0;0;0;5;0;16348;2;0;0;0;0;0;6;0;12313;2;0;0;0;0;0;7;0;8587;0;0;0;0;8;0;8607;0;0;0;0;9;0;4639;0;0;0;0
14.03.19;20:05:00;1;621;6149;0;2;0;7723;0;0;0;0;3;0;4853;0;0;0;0;4;0;6806;0;0;0;0;5;0;16348;2;0;0;0;0;0;6;0;12313;2;0;0;0;0;0;7;0;8587;0;0;0;0;8;0;8607;0;0;0;0;9;0;4639;0;0;0;0
14.03.19;20:00:00;1;1520;6099;0;2;0;7723;0;0;0;0;3;0;4853;0;0;0;0;4;0;6806;0;0;0;0;5;0;16348;2;0;0;0;0;0;6;0;12313;2;0;0;0;0;0;7;0;8587;0;0;0;0;8;0;8607;0;0;0;0;9;0;4639;0;0;0;0
14.03.19;19:55:00;1;2166;5957;0;2;0;7723;0;0;0;0;3;0;4853;0;0;0;0;4;0;6806;0;0;0;0;5;0;16348;2;0;0;0;0;0;6;0;12313;2;0;0;0;0;0;7;0;8587;0;0;0;0;8;0;8607;0;0;0;0;9;0;4639;0;0;0;0
14.03.19;19:50:00;1;578;5796;0;2;0;7723;0;0;0;0;3;0;4853;0;0;0;0;4;0;6806;0;0;0;0;5;0;16348;2;0;0;0;0;0;6;0;12313;2;0;0;0;0;0;7;0;8587;0;0;0;0;8;0;8607;0;0;0;0;9;0;4639;0;0;0;0
14.03.19;19:45:00;1;571;5748;0;2;0;7723;0;0;0;0;3;0;4853;0;0;0;0;4;0;6806;0;0;0;0;5;0;16348;2;0;0;0;0;0;6;0;12313;2;0;0;0;0;0;7;0;8587;0;0;0;0;8;0;8607;0;0;0;0;9;0;4639;0;0;0;0
14.03.19;19:40:00;1;573;5700;0;2;0;7723;0;0;0;0;3;0;4853;0;0;0;0;4;0;6806;0;0;0;0;5;0;16348;2;0;0;0;0;0;6;0;12313;2;0;0;0;0;0;7;0;8587;0;0;0;0;8;0;8607;0;0;0;0;9;0;4639;0;0;0;0
14.03.19;19:35:00;1;435;5661;0;2;0;7723;0;0;0;0;3;0;4853;0;0;0;0;4;0;6806;0;0;0;0;5;0;16348;2;0;0;0;0;0;6;0;12313;2;0;0;0;0;0;7;0;8587;0;0;0;0;8;0;8607;0;0;0;0;9;0;4639;0;0;0;0
14.03.19;19:30:00;1;397;5623;0;2;0;7723;0;0;0;0;3;0;4853;0;0;0;0;4;0;6806;0;0;0;0;5;0;16348;2;0;0;0;0;0;6;0;12313;2;0;0;0;0;0;7;0;8587;0;0;0;0;8;0;8607;0;0;0;0;9;0;4639;0;0;0;0
14.03.19;19:25:00;1;375;5590;0;2;0;7723;0;0;0;0;3;0;4853;0;0;0;0;4;0;6806;0;0;0;0;5;0;16348;2;0;0;0;0;0;6;0;12313;2;0;0;0;0;0;7;0;8587;0;0;0;0;8;0;8607;0;0;0;0;9;0;4639;0;0;0;0
14.03.19;19:20:00;1;381;5559;0;2;0;7723;0;0;0;0;3;0;4853;0;0;0;0;4;0;6806;0;0;0;0;5;0;16348;2;0;0;0;0;0;6;0;12313;2;0;0;0;0;0;7;0;8587;0;0;0;0;8;0;8607;0;0;0;0;9;0;4639;0;0;0;0
14.03.19;19:15:00;1;345;5527;0;2;0;7723;0;0;0;0;3;0;4853;0;0;0;0;4;0;6806;0;0;0;0;5;0;16348;2;0;0;0;0;0;6;0;12313;2;0;0;0;0;0;7;0;8587;0;0;0;0;8;0;8607;0;0;0;0;9;0;4639;0;0;0;0
14.03.19;19:10:00;1;1185;5498;0;2;0;7723;0;0;0;0;3;0;4853;0;0;0;0;4;0;6806;0;0;0;0;5;0;16348;2;0;0;0;0;0;6;0;12313;2;0;0;0;0;0;7;0;8587;0;0;0;0;8;0;8607;0;0;0;0;9;0;4639;0;0;0;0
14.03.19;19:05:00;1;654;5369;0;2;0;7723;0;0;0;0;3;0;4853;0;0;0;0;4;0;6806;0;0;0;0;5;0;16348;2;0;0;0;0;0;6;0;12313;2;0;0;0;0;0;7;0;8587;0;0;0;0;8;0;8607;0;0;0;0;9;0;4639;0;0;0;0
14.03.19;19:00:00;1;338;5317;0;2;0;7723;0;0;0;0;3;0;4853;0;0;0;0;4;0;6806;0;0;0;0;5;0;16348;2;0;0;0;0;0;6;0;12313;2;0;0;0;0;0;7;0;8587;0;0;0;0;8;0;8607;0;0;0;0;9;0;4639;0;0;0;0
14.03.19;18:55:00;1;593;5289;0;2;0;7723;0;0;0;0;3;0;4853;0;0;0;0;4;0;6806;0;0;0;0;5;0;16348;2;0;0;0;0;0;6;0;12313;2;0;0;0;0;0;7;0;8587;0;0;0;0;8;0;8607;0;0;0;0;9;0;4639;0;0;0;0
14.03.19;18:50:00;1;484;5216;0;2;0;7723;0;0;0;0;3;0;4853;0;0;0;0;4;0;6806;0;0;0;0;5;0;16348;2;0;0;0;0;0;6;0;12313;2;0;0;0;0;0;7;0;8587;0;0;0;0;8;0;8607;0;0;0;0;9;0;4639;0;0;0;0
14.03.19;18:45:00;1;341;5182;0;2;0;7723;0;0;0;0;3;0;4853;0;0;0;0;4;0;6806;0;0;0;0;5;0;16348;2;0;0;0;0;0;6;0;12313;2;0;0;0;0;0;7;0;8587;0;0;0;0;8;0;8607;0;0;0;0;9;0;4639;0;0;0;0
14.03.19;18:40:00;1;1420;5153;0;2;0;7723;0;0;0;0;3;0;4853;0;0;0;0;4;0;6806;0;0;0;0;5;0;16348;2;0;0;0;0;0;6;0;12313;2;0;0;0;0;0;7;0;8587;0;0;0;0;8;0;8607;0;0;0;0;9;0;4639;0;0;0;0
14.03.19;18:35:00;1;3167;5012;0;2;0;7723;0;0;0;0;3;0;4853;0;0;0;0;4;0;6806;0;0;0;0;5;0;16348;2;0;0;0;0;0;6;0;12313;2;0;0;0;0;0;7;0;8587;0;0;0;0;8;0;8607;0;0;0;0;9;0;4639;0;0;0;0
14.03.19;18:30:00;1;1012;4780;0;2;0;7723;0;0;0;0;3;0;4853;0;0;0;0;4;0;6806;0;0;0;0;5;0;16348;2;0;0;0;0;0;6;0;12313;2;0;0;0;0;0;7;0;8587;0;0;0;0;8;0;8607;0;0;0;0;9;0;4639;0;0;0;0
14.03.19;18:25:00;1;251;4750;0;2;0;7723;0;0;0;0;3;0;4853;0;0;0;0;4;0;6806;0;0;0;0;5;0;16348;2;0;0;0;0;0;6;0;12313;2;0;0;0;0;0;7;0;8587;0;0;0;0;8;0;8607;0;0;0;0;9;0;4639;0;0;0;0
14.03.19;18:20:00;1;214;4730;0;2;0;7723;0;0;0;0;3;0;4853;0;0;149;8;4;0;6806;0;0;0;0;5;0;16348;2;0;0;0;0;0;6;0;12313;2;0;0;0;0;0;7;0;8587;0;0;0;0;8;0;8607;0;0;0;0;9;0;4639;0;0;0;0
14.03.19;18:15:00;1;226;4713;0;2;0;7723;2;0;262;12;3;0;4853;6;0;294;15;4;0;6806;0;0;0;0;5;0;16348;2;0;0;0;0;0;6;0;12313;1;0;0;0;0;0;7;0;8587;0;0;0;0;8;0;8607;0;0;0;0;9;0;4639;0;0;0;0
14.03.19;18:10:00;1;276;4693;0;2;0;7723;6;0;302;12;3;0;4853;6;0;347;15;4;0;6806;2;0;76;10;5;0;16348;2;0;0;51;50;9;6;0;12313;1;0;0;0;0;0;7;0;8587;0;0;0;0;8;0;8607;0;0;0;0;9;0;4639;0;0;0;0
14.03.19;18:05:00;1;358;4670;0;2;0;7723;6;0;341;12;3;0;4853;6;1;406;15;4;0;6806;1;0;117;10;5;0;16348;23;0;0;357;376;22;6;0;12313;2;9;1;174;394;20;7;0;8587;0;0;0;0;8;0;8607;0;0;85;4;9;0;4639;0;0;177;6
14.03.19;18:00:00;1;387;4638;0;2;0;7723;6;0;352;12;3;0;4853;6;3;409;15;4;0;6806;1;0;132;11;5;0;16348;23;0;0;368;383;22;6;0;12313;23;8;0;181;485;21;7;0;8587;0;0;42;2;8;0;8607;7;0;216;11;9;0;4639;6;0;282;10
14.03.19;17:55:00;1;1558;4586;0;2;0;7723;6;0;368;12;3;0;4853;6;2;439;15;4;0;6806;1;0;155;11;5;0;16348;26;0;0;399;501;22;6;0;12313;23;7;0;218;528;21;7;0;8587;6;0;290;15;8;0;8607;6;0;295;15;9;0;4639;6;0;312;11
14.03.19;17:50:00;1;348;4473;0;2;0;7723;6;0;380;12;3;0;4853;6;1;457;15;4;0;6806;1;0;179;11;5;6;16348;26;0;0;403;587;22;6;0;12313;23;6;4;507;242;21;7;0;8587;6;0;333;15;8;0;8607;6;0;340;15;9;0;4639;6;0;361;11
14.03.19;17:45:00;1;371;4443;0;2;0;7723;6;0;381;12;3;0;4853;6;4;431;15;4;0;6806;1;0;179;11;5;0;16348;23;0;0;412;610;23;6;0;12313;23;12;0;181;550;22;7;0;8587;6;0;336;15;8;0;8607;6;0;343;15;9;0;4639;6;0;365;11
14.03.19;17:40:00;1;359;4413;0;2;0;7723;6;0;392;12;3;0;4853;6;2;477;15;4;0;6806;1;0;200;12;5;7;16348;4;0;0;412;643;23;6;0;12313;23;11;0;249;566;22;7;0;8587;6;0;376;15;8;0;8607;6;0;383;15;9;0;4639;6;0;396;11
14.03.19;17:35:00;1;295;4382;0;2;0;7723;6;0;408;12;3;0;4853;6;0;494;15;4;0;6806;1;0;227;12;5;68;16347;4;5;14;377;601;24;6;28;12313;1;20;22;525;507;23;7;0;8587;6;3;403;16;8;0;8607;6;2;420;15;9;1;4639;6;2;430;11
14.03.19;17:30:00;1;280;4358;0;2;5;7723;6;14;397;12;3;3;4853;3;10;489;15;4;0;6806;3;0;199;13;5;95;16341;4;19;21;377;601;24;6;59;12310;4;28;29;476;458;24;7;0;8587;6;1;449;16;8;1;8607;6;2;451;15;9;1;4639;6;2;497;11
14.03.19;17:25:00;1;282;4334;0;2;3;7722;6;9;407;13;3;1;4852;6;12;477;15;4;0;6806;3;0;199;13;5;96;16333;4;21;23;377;600;24;6;62;12305;4;31;31;476;458;24;7;0;8587;6;0;454;16;8;0;8607;6;0;476;16;9;2;4639;6;3;498;11
14.03.19;17:20:00;1;281;4311;0;2;4;7722;6;9;415;13;3;2;4852;6;5;522;15;4;1;6806;3;1;199;13;5;116;16325;4;36;32;377;601;24;6;74;12300;4;38;37;476;457;24;7;2;8587;3;9;446;16;8;1;8607;3;9;448;16;9;0;4638;6;0;522;12
14.03.19;17:15:00;1;266;4287;0;2;45;7722;6;68;380;13;3;6;4852;6;11;530;15;4;8;6806;3;9;199;13;5;161;16315;4;59;53;377;601;24;6;105;12293;4;51;54;476;458;24;7;17;8587;6;23;442;16;8;7;8607;6;15;476;16;9;4;4638;3;13;497;12
14.03.19;17:10:00;1;260;4265;0;2;14;7718;4;24;408;13;3;2;4852;6;8;527;15;4;11;6806;3;11;199;13;5;137;16302;4;48;43;377;601;24;6;91;12285;4;52;54;476;457;24;7;0;8585;6;6;478;16;8;4;8607;6;6;479;16;9;0;4638;6;4;528;12
14.03.19;17:05:00;1;268;4243;0;2;9;7717;4;15;418;13;3;0;4851;6;0;553;16;4;3;6805;3;3;199;13;5;147;16290;4;50;48;377;601;24;6;94;12277;4;36;39;476;458;24;7;3;8585;6;9;476;17;8;4;8606;6;9;459;16;9;2;4638;6;5;522;12
14.03.19;17:00:00;1;262;4221;0;2;47;7716;4;77;358;13;3;6;4851;3;17;510;16;4;10;6804;3;10;199;13;5;158;16278;4;53;53;377;601;25;6;102;12269;4;45;47;476;458;24;7;5;8585;6;7;482;17;8;2;8606;6;7;485;17;9;1;4638;6;4;534;12
14.03.19;16:55:00;1;264;4199;0;2;66;7712;4;97;368;14;3;7;4851;6;13;536;16;4;13;6803;3;13;198;13;5;189;16265;4;76;66;377;601;25;6;126;12260;4;56;63;476;458;24;7;18;8585;6;27;455;17;8;31;8606;6;57;388;17;9;3;4638;6;8;539;12
14.03.19;16:50:00;1;253;4177;0;2;67;7706;4;98;373;14;3;6;4850;6;11;542;16;4;21;6802;3;22;198;13;5;196;16249;4;80;70;377;601;25;6;132;12250;4;61;66;476;457;24;7;27;8583;6;51;428;17;8;47;8604;4;74;384;17;9;0;4637;6;0;570;12
14.03.19;16:45:00;1;220;4156;0;2;113;7701;4;146;385;14;3;43;4850;6;65;533;16;4;65;6800;3;67;198;13;5;276;16232;4;124;106;377;601;25;6;184;12239;4;82;82;476;457;24;7;73;8581;4;112;434;17;8;72;8600;4;110;459;17;9;16;4637;3;26;524;12
14.03.19;16:40:00;1;216;4138;0;2;163;7692;4;196;378;14;3;87;4846;4;127;520;17;4;115;6795;5;120;220;13;5;366;16209;4;174;144;381;601;25;6;243;12223;4;127;131;476;458;24;7;115;8575;4;162;428;17;8;124;8594;4;159;466;17;9;27;4636;6;35;552;13
14.03.19;16:35:00;1;233;4120;0;2;221;7678;4;257;387;14;3;129;4839;4;170;513;17;4;169;6786;5;175;229;13;5;479;16178;4;227;198;392;602;25;6;314;12202;4;178;171;476;458;24;7;196;8566;4;231;455;17;8;193;8583;4;230;478;17;9;63;4634;4;79;526;13
14.03.19;16:30:00;1;216;4101;0;2;104;7660;4;137;372;14;3;23;4829;4;35;532;16;4;56;6772;3;58;198;14;5;259;16140;4;113;101;377;601;25;6;175;12177;4;73;71;476;458;24;7;63;8550;4;103;459;17;8;73;8568;4;113;464;17;9;7;4628;6;11;559;13
14.03.19;16:25:00;1;215;4083;0;2;95;7651;4;127;364;14;3;0;4826;6;0;574;17;4;57;6767;3;59;198;14;5;249;16119;4;106;96;377;601;25;6;167;12163;4;83;86;476;458;24;7;75;8544;4;105;425;17;8;57;8561;4;93;476;17;9;7;4628;6;12;552;13
14.03.19;16:20:00;1;212;4065;0;2;122;7643;4;156;376;14;3;66;4826;4;105;486;17;4;75;6762;3;79;202;14;5;296;16098;4;130;115;377;601;25;6;195;12149;4;105;104;476;458;24;7;89;8538;4;121;437;17;8;75;8556;4;115;468;17;9;16;4627;4;23;539;13
14.03.19;16:15:00;1;214;4047;0;2;148;7633;4;184;386;14;3;83;4821;4;121;503;17;4;100;6756;5;104;218;14;5;339;16073;4;162;134;377;601;25;6;232;12132;4;108;113;477;457;24;7;133;8531;4;162;457;18;8;126;8550;4;164;454;17;9;55;4626;4;78;491;13
14.03.19;16:10:00;1;488;4029;0;2;157;7621;4;192;380;14;3;90;4814;4;129;496;17;4;116;6748;3;120;217;14;5;354;16045;4;168;141;377;601;25;6;237;12114;4;106;108;476;458;24;7;123;8520;4;164;454;18;8;127;8540;4;165;452;17;9;51;4621;6;66;501;14
14.03.19;16:05:00;1;254;3981;0;2;175;7608;4;211;389;15;3;98;4807;4;141;512;17;4;127;6738;5;132;225;14;5;382;16015;4;183;159;377;601;25;6;261;12094;4;125;123;476;458;24;7;140;8510;4;189;469;18;8;159;8529;4;194;454;17;9;87;4618;4;114;475;14
14.03.19;16:00:00;1;228;3959;0;2;183;7593;4;221;382;15;3;106;4799;4;148;506;17;4;138;6728;5;143;230;14;5;400;15983;4;191;170;377;601;25;6;267;12072;4;134;128;476;458;24;7;153;8498;4;198;463;18;8;163;8516;4;193;463;18;9;87;4610;4;115;502;14
14.03.19;15:55:00;1;212;3940;0;2;198;7578;4;238;390;15;3;117;4790;4;156;514;18;4;148;6716;5;154;230;14;5;424;15950;4;196;173;377;601;25;6;287;12049;4;157;153;476;458;24;7;168;8485;4;211;469;18;8;183;8503;4;217;463;18;9;97;4603;4;125;496;14
14.03.19;15:50:00;1;212;3922;0;2;180;7562;4;215;379;15;3;99;4780;4;140;521;18;4;132;6704;5;137;229;15;5;398;15914;4;196;163;377;601;25;6;269;12025;4;124;118;476;457;24;7;166;8472;4;204;445;18;8;165;8488;4;206;465;18;9;91;4595;4;120;512;14
14.03.19;15:45:00;1;212;3904;0;2;193;7546;4;228;384;15;3;114;4772;4;153;501;18;4;143;6693;5;149;227;15;5;427;15881;4;199;177;394;601;25;6;281;12002;4;129;129;476;458;24;7;166;8458;4;208;458;18;8;171;8474;4;215;459;18;9;94;4587;4;122;497;14
14.03.19;15:40:00;1;212;3887;0;2;223;7530;4;260;384;15;3;126;4762;4;168;521;18;4;166;6681;5;172;230;15;5;483;15845;4;232;197;403;621;25;6;359;11979;4;204;205;568;550;24;7;186;8444;4;226;449;18;8;191;8459;4;225;461;18;9;101;4579;4;131;504;15
14.03.19;15:35:00;1;240;3869;0;2;272;7512;4;313;387;16;3;162;4752;4;205;524;18;4;217;6667;5;227;229;15;5;587;15805;4;289;244;398;643;25;6;441;11949;4;213;217;579;563;24;7;249;8428;4;290;477;18;8;250;8443;4;294;471;18;9;132;4571;4;165;528;15
14.03.19;15:30:00;1;270;3849;0;2;388;7489;4;433;400;16;3;240;4738;4;283;521;18;4;323;6649;5;337;239;15;5;825;15754;4;411;349;422;678;25;6;612;11910;4;287;281;590;572;24;7;380;8408;4;413;480;18;8;379;8423;4;425;474;18;9;205;4560;4;235;521;15
14.03.19;15:25:00;1;270;3826;0;2;403;7457;4;448;401;16;3;250;4719;4;295;508;18;4;338;6623;5;352;241;15;5;867;15685;4;424;364;422;687;25;6;648;11859;4;328;320;597;567;24;7;406;8376;4;452;483;18;8;404;8391;4;445;481;18;9;220;4543;4;253;513;15
14.03.19;15:20:00;1;312;3803;0;2;453;7423;4;499;397;16;3;281;4698;4;329;518;18;4;384;6594;5;400;241;15;5;959;15612;4;483;404;423;669;25;6;719;11805;4;381;373;593;574;24;7;440;8342;4;490;479;18;8;449;8357;4;491;480;18;9;240;4525;4;275;520;15
14.03.19;15:15:00;1;316;3777;0;2;467;7386;4;513;406;16;3;290;4674;4;337;519;19;4;398;6562;5;415;240;16;5;997;15531;4;491;417;424;690;26;6;748;11744;4;343;334;593;575;24;7;475;8306;4;519;473;18;8;474;8320;4;522;486;18;9;256;4505;4;293;518;15
14.03.19;15:10:00;1;280;3750;0;2;557;7347;4;606;408;16;3;346;4650;4;396;518;19;4;477;6529;5;496;241;16;5;1186;15447;4;600;502;422;701;26;6;881;11681;4;467;452;600;578;24;7;554;8266;4;603;484;18;8;557;8281;4;611;474;18;9;297;4483;4;338;530;16
14.03.19;15:05:00;1;272;3726;0;2;517;7300;4;564;408;17;3;322;4621;4;371;520;19;4;448;6489;5;467;241;16;5;1106;15349;4;560;469;424;697;26;6;841;11607;4;439;434;595;570;24;7;553;8220;4;597;471;18;8;562;8235;4;610;481;18;9;299;4459;4;340;526;16
14.03.19;15:00:00;1;281;3704;0;2;516;7257;4;566;406;17;3;320;4594;4;371;518;19;4;443;6452;5;461;240;16;5;1107;15258;4;561;468;426;696;26;6;824;11538;4;434;435;602;579;25;7;522;8173;4;561;475;18;8;521;8187;4;566;480;18;9;281;4433;4;318;529;16
14.03.19;14:55:00;1;214;3682;0;2;454;7214;4;500;405;17;3;282;4568;4;329;509;19;4;386;6415;5;402;237;16;5;976;15166;4;493;410;425;680;26;6;732;11469;4;359;368;597;577;25;7;484;8130;4;527;473;18;8;493;8144;4;535;463;18;9;264;4410;4;302;524;16
14.03.19;14:50:00;1;215;3664;0;2;527;7175;4;576;404;17;3;328;4543;4;377;505;19;4;455;6382;5;474;240;16;5;1121;15084;4;560;473;422;691;26;6;844;11407;4;431;428;599;577;25;7;554;8089;4;601;485;18;8;562;8102;4;612;477;18;9;303;4388;4;339;533;16
14.03.19;14:45:00;1;214;3646;0;2;508;7131;4;559;408;17;3;317;4516;4;365;506;19;4;437;6344;5;454;239;16;5;1061;14992;4;528;448;423;682;26;6;801;11337;4;404;395;595;573;25;7;511;8043;4;552;475;18;8;513;8056;4;556;468;18;9;271;4363;4;313;528;16
14.03.19;14:40:00;1;214;3628;0;2;569;7089;4;618;412;17;3;353;4490;4;405;510;19;4;485;6308;5;505;240;16;5;1199;14904;4;610;510;424;689;26;6;900;11270;4;457;458;594;579;25;7;564;8001;4;612;483;18;8;569;8013;4;617;483;18;9;305;4340;4;344;524;16
14.03.19;14:35:00;1;245;3610;0;2;542;7042;4;592;411;17;3;338;4461;4;388;519;19;4;469;6268;5;488;239;16;5;1160;14803;4;581;492;423;698;26;6;877;11195;4;468;449;593;571;25;7;572;7954;4;623;482;18;8;583;7965;4;632;486;18;9;315;4315;4;354;531;16
14.03.19;14:30:00;1;258;3589;0;2;605;6996;4;656;407;17;3;378;4432;4;429;513;19;4;525;6228;5;547;241;17;5;1284;14706;4;650;550;424;692;26;6;977;11121;4;472;461;599;579;25;7;649;7905;4;695;480;19;8;651;7916;4;700;491;18;9;352;4288;4;393;528;16
14.03.19;14:25:00;1;288;3568;0;2;595;6946;4;645;406;18;3;368;4401;4;421;516;19;4;512;6184;5;533;242;17;5;1265;14600;4;627;541;429;696;26;6;967;11040;4;531;526;600;572;25;7;638;7851;4;680;485;19;8;632;7862;4;683;489;18;9;343;4259;4;380;519;16
14.03.19;14:20:00;1;216;3547;0;2;662;6897;4;714;404;18;3;415;4370;4;468;524;20;4;575;6142;5;599;241;17;5;1409;14493;4;726;600;428;699;26;6;1061;10959;4;559;547;597;576;25;7;710;7798;4;755;486;19;8;705;7809;4;761;481;18;9;379;4230;4;425;529;17
14.03.19;14:15:00;1;216;3529;0;2;690;6842;4;746;412;18;3;429;4336;4;480;520;20;4;600;6094;5;625;243;17;5;1432;14376;4;730;617;421;706;26;6;1089;10870;4;577;560;604;579;25;7;721;7739;4;768;482;19;8;732;7750;4;782;484;19;9;391;4198;4;435;521;17
14.03.19;14:10:00;1;216;3511;0;2;591;6784;4;643;412;18;3;371;4300;4;422;521;20;4;511;6044;5;533;243;17;5;1240;14256;4;639;533;416;693;26;6;949;10779;4;472;465;595;574;25;7;637;7678;4;692;483;19;8;644;7689;4;699;480;19;9;346;4166;4;391;530;17